"Pseudo-MPEC" for 2003-061B = NORAD 28141 = 5N3DAC3

Created 2016 Jun 1 3:16:35 UT using Find_Orb

Astrometry:
2003-061B     C2005 07 09.37803 23 42 06.22 +13 23 47.6          14.0 V      703
2003-061B     C2005 07 09.38505 23 43 09.72 +13 35 35.6                      703
2003-061B     C2005 07 09.39204 23 44 11.08 +13 47 05.5                      703
2003-061B     C2005 07 09.39903 23 45 11.14 +13 58 21.3          14.0 V      703
2003-061B     C2005 07 09.43391 23 49 49.67 +14 50 42.9                      703
2003-061B     C2005 07 09.43569 23 50 03.25 +14 53 18.1                      703
2003-061B     C2005 07 09.43748 23 50 16.42 +14 55 47.2                      703
2003-061B     C2005 07 09.43927 23 50 29.80 +14 58 16.3                      703
2003-061B     C2005 07 09.45415 23 52 18.42 +15 18 32.2                      703
2003-061B     C2005 07 09.45485 23 52 23.01 +15 19 21.7                      703
2003-061B     C2005 07 09.45502 23 52 24.69 +15 19 41.3                      703
2003-061B     C2005 07 09.45572 23 52 29.24 +15 20 31.7                      703
2003-061B     C2005 07 09.45589 23 52 30.81 +15 20 50.4                      703
2003-061B     C2005 07 09.45677 23 52 37.12 +15 21 59.2                      703
2003-061B     C2005 07 09.45747 23 52 41.76 +15 22 49.3                      703
2003-061B     C2005 07 09.46291 23 53 20.55 +15 29 57.7                      703
2003-061B     C2005 07 09.46361 23 53 24.93 +15 30 44.7                      703
2003-061B     C2005 07 09.46378 23 53 26.62 +15 31 04.6                      703
2003-061B     C2005 07 09.46448 23 53 31.18 +15 31 52.3                      703
2003-061B     C2005 07 09.46536 23 53 37.38 +15 33 00.2                      703
2003-061B     C2005 07 09.46642 23 53 45.16 +15 34 26.4                      703
2003-061B     C2005 07 09.46712 23 53 49.64 +15 35 13.5                      703
2003-061B     C2005 07 09.46730 23 53 51.03 +15 35 32.3                      703
2003-061B     C2005 07 09.46800 23 53 55.70 +15 36 19.9                      703
2003-061B     C2005 07 09.46820 23 53 57.44 +15 36 40.2                      703
2003-061B     C2005 07 09.46890 23 54 01.98 +15 37 29.9                      703
2003-061B     C2005 07 09.46908 23 54 03.54 +15 37 46.0                      703
2003-061B     C2005 07 09.46978 23 54 08.03 +15 38 35.7                      703
2003-061B     C2005 07 09.46996 23 54 09.58 +15 38 53.3                      703
2003-061B     C2005 07 09.47066 23 54 14.23 +15 39 41.7                      703
2003-061B     C2005 07 09.47084 23 54 15.68 +15 39 58.7                      703
2003-061B     C2005 07 09.47154 23 54 20.34 +15 40 48.8                      703
2003-061B     C2006 10 21.28987 03 44 26.43 +09 03 17.0         x14.4 R      678
2003-061B     C2006 10 21.29111 03 44 36.59 +09 01 43.9         x14.3 R      678
2003-061B     C2006 10 21.29229 03 44 46.57 +09 00 09.7         x14.3 R      678
2003-061B     C2006 10 22.26704 03 10 35.67 +12 25 46.7         x14.3 R      678
2003-061B     C2006 10 22.26827 03 10 44.37 +12 24 37.4         x14.3 R      678
2003-061B     C2006 10 22.26950 03 10 53.61 +12 23 31.4         x13.8 R      678

Station data:
(678) Fountain Hills (N33.6359 W111.7403)  US/Arizona.   Observers C. W.
    Juels, P. R. Holvorcem.  Measurer PinPoint Engine.  0.07-m f/2.8 refractor
    + CCD.
(703) Catalina Sky Survey (N32.41712 W110.73264)  US/Arizona.   Observer
    A.Odell.  Measurer E. J. Christensen.  0.68-m Schmidt + CCD.

Orbital elements:  2003-061B = NORAD 28141 = 5N3DAC3
   Perigee 2005 Jul 9.018310 +/- 0.00236 TT =  0:26:22 (JD 2453560.518310)
Epoch 2005 Jul  9.0 TT = JDT 2453560.5                        Find_Orb
M 354.37325 +/- 0.7                 (J2000 equatorial)
n 307.30187054 +/- 3.33             Peri.  228.42959 +/- 0.12
a 46941.8322 +/- 339                Node   318.70399 +/- 0.16
e   0.8448414 +/- 0.00141           Incl.   25.75694 +/- 0.018
P1686.91m/1.171d           H 27.9   G  0.15   U 13.5  
q 7283.42668 +/- 118    Q 86600.2377 +/- 559
32 of 38 observations 2005 July 9 (2.2 hr); mean residual 2".325
Residuals in arcseconds: 
050709 703 1.51+ 1.02+    050709 703 2.18+ 2.74+    050709 703 2.55+ 1.21+    
050709 703 .753+ .380-    050709 703 2.66- 2.18-    050709 703 2.62- 1.80-    
050709 703 2.42- .821-    050709 703 3.03+ 3.16+    050709 703 1.78+ 2.27+    
050709 703 1.14- .254+    050709 703 4.60- 3.70-    050709 703 .967- 1.88-    
050709 703 .300+ 2.69-    050709 703 2.61+ 3.14+    050709 703 2.01+ 1.63+    
050709 703 2.89+ 1.59+    050709 703 2.30- 2.86-    050709 703 .471- .659-    
050709 703 .561- .178-    050709 703 1.56- 2.28-    061021 678( 52d+ 773'-)   
050709 703 .011+ 1.04-    050709 703 4.04+ 3.10+    061021 678( 52d+ 774'-)   
050709 703 2.04+ 2.85+    050709 703 1.64- 3.00-    061021 678( 52d+ 774'-)   
050709 703 3.96- 3.17-    050709 703 .351+ 2.14+    061022 678( 47d-  21d+)   
050709 703 2.78+ 2.97+    050709 703 2.46- 3.30-    061022 678( 47d-  21d+)   
050709 703 3.65- 1.98-    050709 703 2.61+ 1.87+    061022 678( 48d-  21d+)   
050709 703 1.53+ 3.29+    050709 703 1.96- 1.31-    

Ephemerides (geocentric):
Date (UTC) HH   RA              Dec         delta   r     elong  mag " sig PA
---- -- -- --  ------------   ------------  ------ ------ -----  --- ---- ---
2005 07 09 00  07 09 53.550   +14 02 48.32   12084 1.0166   8.4 26?? 246' 111
2005 07 09 01  19 02 54.555   -14 40 30.64   14671 1.0168 171.9 Sha  4844  70
2005 07 09 02  21 08 47.844   -00 40 42.73   29269 1.0169 144.5 10.9  678  72
2005 07 09 03  21 54 05.664   +04 44 59.25   40589 1.0169 132.3 11.9  206  87
2005 07 09 04  22 21 10.562   +07 53 14.10   49763 1.0169 125.0 12.6   98 107
2005 07 09 05  22 40 36.609   +10 02 49.60   57394 1.0169 119.9 13.0   67 122
2005 07 09 06  22 55 57.508   +11 41 03.49   63815 1.0169 115.9 13.4   55 127
2005 07 09 07  23 08 49.594   +13 00 13.27   69229 1.0169 112.5 13.7   49 127
2005 07 09 08  23 20 04.275   +14 06 47.83   73772 1.0169 109.6 13.9   43 125
2005 07 09 09  23 30 12.314   +15 04 35.32   77536 1.0168 107.1 14.1   38 124
2005 07 09 10  23 39 33.785   +15 56 00.48   80588 1.0168 104.7 14.3   31 127
2005 07 09 11  23 48 22.777   +16 42 40.89   82976 1.0168 102.5 14.4   23 140
2005 07 09 12  23 56 49.860   +17 25 45.72   84735 1.0168 100.5 14.5   18   0
2005 07 09 13  00 05 03.509   +18 06 06.18   85888 1.0168  98.4 14.6   29  44
2005 07 09 14  00 13 10.995   +18 44 21.80   86450 1.0167  96.5 14.7   54  62
2005 07 09 15  00 21 19.029   +19 21 04.24   86427 1.0167  94.5 14.8   89  69
2005 07 09 16  00 29 34.269   +19 56 39.93   85820 1.0167  92.5 14.8  136  73
2005 07 09 17  00 38 03.830   +20 31 31.75   84620 1.0167  90.5 14.9  198  75
2005 07 09 18  00 46 55.849   +21 06 00.34   82813 1.0167  88.4 14.9  279  76
2005 07 09 19  00 56 20.261   +21 40 24.90   80374 1.0166  86.2 15.0  385  78
2005 07 09 20  01 06 29.938   +22 15 03.67   77268 1.0166  83.9 15.0  527  79
2005 07 09 21  01 17 42.564   +22 50 13.70   73446 1.0166  81.3 15.0  722  80
2005 07 09 22  01 30 23.951   +23 26 09.09   68838 1.0166  78.4 15.0  998  81
2005 07 09 23  01 45 14.435   +24 02 55.09   63350 1.0166  75.0 15.0 1407  82
2005 07 10 00  02 03 22.558   +24 40 09.30   56842 1.0165  70.9 15.0 2054  84
2005 07 10 01  02 26 58.605   +25 15 57.13   49103 1.0165  65.6 15.0 3186  86
2005 07 10 02  03 00 54.683   +25 42 22.15   39785 1.0165  58.1 15?? 5509  89
2005 07 10 03  03 59 36.600   +25 18 24.14   28253 1.0165  45.1 15?? 199'  95
2005 07 10 04  06 41 56.879   +16 33 57.25   13357 1.0166  10.2 24?? 865' 110
2005 07 10 05  18 40 27.231   -16 39 26.13   13396 1.0168 169.6 Sha   28d  70
2005 07 10 06  21 04 06.154   -01 10 34.60   28284 1.0168 146.7 10.7 318'  64
2005 07 10 07  21 51 49.190   +04 32 43.42   39810 1.0168 133.9 11.8 9359  64
2005 07 10 08  22 19 45.294   +07 47 10.69   49123 1.0169 126.4 12.5 6082  65
2005 07 10 09  22 39 36.453   +09 59 41.22   56860 1.0169 121.2 13.0 4509  65
2005 07 10 10  22 55 11.883   +11 39 30.68   63366 1.0169 117.1 13.3 3609  66
2005 07 10 11  23 08 13.225   +12 59 37.26   68852 1.0168 113.7 13.6 3040  67
2005 07 10 12  23 19 34.159   +14 06 47.15   73458 1.0168 110.8 13.9 2658  67
2005 07 10 13  23 29 46.563   +15 04 56.95   77280 1.0168 108.2 14.0 2393  68
2005 07 10 14  23 39 11.118   +15 56 35.92   80385 1.0168 105.9 14.2 2209  69
2005 07 10 15  23 48 02.262   +16 43 24.22   82823 1.0168 103.7 14.3 2083  69
2005 07 10 16  23 56 30.773   +17 26 32.60   84630 1.0168 101.6 14.5 2003  70
2005 07 10 17  00 04 45.247   +18 06 53.25   85829 1.0167  99.6 14.6 1961  71
2005 07 10 18  00 12 53.023   +18 45 06.27   86436 1.0167  97.6 14.7 1956  72
2005 07 10 19  00 21 00.829   +19 21 43.72   86459 1.0167  95.7 14.7 1984  72
2005 07 10 20  00 29 15.310   +19 57 12.19   85897 1.0167  93.7 14.8 2049  73
2005 07 10 21  00 37 43.521   +20 31 54.64   84744 1.0167  91.7 14.8 2154  74
2005 07 10 22  00 46 33.493   +21 06 11.64   82985 1.0166  89.6 14.9 2308  75
2005 07 10 23  00 55 54.978   +21 40 22.26   80597 1.0166  87.4 14.9 2523  76
2005 07 11 00  01 06 00.556   +22 14 44.49   77544 1.0166  85.1 14.9 2819  77
2005 07 11 01  01 17 07.428   +22 49 35.08   73780 1.0166  82.5 14.9 3230  78
2005 07 11 02  01 29 40.575   +23 25 07.89   69237 1.0166  79.6 14.9 3811  79
2005 07 11 03  01 44 18.804   +24 01 28.35   63822 1.0165  76.3 14.9 4663  81
2005 07 11 04  02 02 07.567   +24 38 16.05   57400 1.0165  72.3 14.9 5986  83
2005 07 11 05  02 25 09.985   +25 13 45.89   49767 1.0165  67.1 14.9 8226  85
2005 07 11 06  02 57 57.705   +25 40 47.88   40590 1.0165  59.9 15?? 210'  89
2005 07 11 07  03 53 32.747   +25 23 41.95   29265 1.0165  47.6 15?? 396'  94
2005 07 11 08  06 18 03.776   +18 29 03.26   14654 1.0165  15.5 20??  21d 108
2005 07 11 09  18 12 03.299   -18 54 40.83   12100 1.0167 163.2 Sha  102d  72
2005 07 11 10  20 58 57.233   -01 43 28.53   27262 1.0168 149.0 10.6 834'  64
2005 07 11 11  21 49 24.343   +04 19 36.23   39004 1.0168 135.5 11.8 357'  64